When you browse on this site, cookies collect data to enhance your experience and personalize the content and advertising you see.
Visit our Privacy Policy to learn more. By continuing to use the site, you agree to this use of cookies and data.
  • In Hungary
  • List of Countries
  • For 7 days
  • Water Temperature
  • Satellite Maps
  • Weather Map
  • News
  • Weather Widgets
  • user-avatar
    Login

    Hourly Weather Kukumboy

    Today, 19 December, Wednesday

    Time Temperature Precipitation Wind Pressure Humidity
    00:00 +5°C° 0.2 mm 1 mps 700 mmHg 77%
    01:00 +5°C° 0.2 mm 1 mps 700 mmHg 77%
    02:00 +5°C° 0.2 mm 1 mps 699 mmHg 78%
    03:00 +4°C° 0.3 mm 0 mps 699 mmHg 80%
    04:00 +4°C° 0.3 mm 0 mps 699 mmHg 81%
    05:00 +4°C° 0 mm 0 mps 699 mmHg 84%
    06:00 +4°C° 0.3 mm 0 mps 699 mmHg 85%
    07:00 +5°C° 0.3 mm 1 mps 699 mmHg 85%
    08:00 +5°C° 0.3 mm 1 mps 699 mmHg 86%
    09:00 +5°C° 0.3 mm 1 mps 699 mmHg 85%
    10:00 +5°C° 0.3 mm 1 mps 699 mmHg 84%
    11:00 +6°C° 0.3 mm 1 mps 699 mmHg 83%
    12:00 +6°C° 0.3 mm 1 mps 699 mmHg 84%
    13:00 +6°C° 0.3 mm 1 mps 700 mmHg 85%
    14:00 +6°C° 0.3 mm 1 mps 700 mmHg 87%
    15:00 +6°C° 0.3 mm 1 mps 700 mmHg 88%
    16:00 +6°C° 0.3 mm 1 mps 701 mmHg 90%
    17:00 +6°C° 0.3 mm 1 mps 701 mmHg 92%
    18:00 +5°C° 0.4 mm 1 mps 702 mmHg 91%
    19:00 +4°C° 0.4 mm 2 mps 702 mmHg 91%
    20:00 +4°C° 0.4 mm 2 mps 703 mmHg 91%
    21:00 +4°C° 0.4 mm 2 mps 703 mmHg 89%
    22:00 +4°C° 0.4 mm 2 mps 703 mmHg 88%
    23:00 +4°C° 0.4 mm 2 mps 704 mmHg 86%

    Tomorrow, 20 December, Thursday

    Time Temperature Precipitation Wind Pressure Humidity
    00:00 +4°C° 0.3 mm 2 mps 704 mmHg 85%
    01:00 +4°C° 0.3 mm 2 mps 704 mmHg 84%
    02:00 +3°C° 0.3 mm 2 mps 705 mmHg 83%
    03:00 +3°C° 0.3 mm 2 mps 705 mmHg 83%
    04:00 +3°C° 0.3 mm 2 mps 705 mmHg 83%
    05:00 +3°C° 0.3 mm 2 mps 706 mmHg 83%
    06:00 +3°C° 0.3 mm 2 mps 706 mmHg 83%
    07:00 +3°C° 0.3 mm 1 mps 707 mmHg 83%
    08:00 +3°C° 0.3 mm 1 mps 707 mmHg 83%
    09:00 +4°C° 0.2 mm 1 mps 707 mmHg 80%
    10:00 +3°C° 0.2 mm 2 mps 707 mmHg 78%
    11:00 +3°C° 0.2 mm 2 mps 708 mmHg 76%
    12:00 +3°C° 0.1 mm 2 mps 708 mmHg 74%
    13:00 +5°C° 0.1 mm 1 mps 708 mmHg 72%
    14:00 +5°C° 0.1 mm 1 mps 707 mmHg 71%
    15:00 +4°C° 0 mm 1 mps 708 mmHg 73%
    16:00 +3°C° 0 mm 1 mps 708 mmHg 75%
    17:00 +3°C° 0 mm 1 mps 708 mmHg 78%
    18:00 +2°C° 0 mm 1 mps 708 mmHg 77%
    19:00 +1°C° 0 mm 2 mps 709 mmHg 76%
    20:00 -1°C° 0 mm 2 mps 709 mmHg 75%
    21:00 -1°C° 0 mm 2 mps 709 mmHg 72%
    22:00 -1°C° 0 mm 2 mps 709 mmHg 70%
    23:00 -1°C° 0 mm 2 mps 708 mmHg 68%

    Day after tomorrow, 21 December, Friday

    Time Temperature Precipitation Wind Pressure Humidity
    00:00 -1°C° 0 mm 2 mps 708 mmHg 65%
    01:00 -1°C° 0 mm 2 mps 708 mmHg 63%
    02:00 -2°C° 0 mm 2 mps 708 mmHg 60%
    03:00 -2°C° 0 mm 2 mps 707 mmHg 59%
    04:00 -2°C° 0 mm 2 mps 707 mmHg 57%
    05:00 -2°C° 0 mm 2 mps 706 mmHg 56%
    06:00 -2°C° 0 mm 2 mps 706 mmHg 55%
    07:00 -2°C° 0 mm 2 mps 706 mmHg 54%
    08:00 -2°C° 0 mm 2 mps 706 mmHg 53%
    09:00 +1°C° 0 mm 2 mps 705 mmHg 49%
    10:00 +3°C° 0 mm 2 mps 705 mmHg 46%
    11:00 +4°C° 0 mm 2 mps 704 mmHg 43%
    12:00 +5°C° 0 mm 2 mps 703 mmHg 42%
    13:00 +7°C° 0 mm 1 mps 703 mmHg 41%
    14:00 +7°C° 0 mm 1 mps 702 mmHg 40%
    15:00 +6°C° 0 mm 1 mps 702 mmHg 43%
    16:00 +5°C° 0 mm 1 mps 702 mmHg 45%
    17:00 +4°C° 0 mm 1 mps 701 mmHg 47%
    18:00 +4°C° 0 mm 1 mps 701 mmHg 47%
    19:00 +2°C° 0 mm 2 mps 701 mmHg 46%
    20:00 +2°C° 0 mm 2 mps 701 mmHg 45%
    21:00 +2°C° 0 mm 2 mps 700 mmHg 45%
    22:00 +2°C° 0 mm 2 mps 700 mmHg 45%
    23:00 +2°C° 0 mm 2 mps 699 mmHg 46%

    22 December, Saturday

    Time Temperature Precipitation Wind Pressure Humidity
    00:00 +4°C° 0 mm 1 mps 699 mmHg 47%
    01:00 +4°C° 0 mm 1 mps 699 mmHg 48%
    02:00 +4°C° 0 mm 1 mps 699 mmHg 49%
    03:00 +4°C° 0 mm 1 mps 698 mmHg 51%
    04:00 +4°C° 0 mm 1 mps 698 mmHg 52%
    05:00 +4°C° 0 mm 1 mps 698 mmHg 54%
    06:00 +4°C° 0 mm 1 mps 698 mmHg 55%
    07:00 +4°C° 0 mm 1 mps 698 mmHg 56%
    08:00 +4°C° 0 mm 1 mps 698 mmHg 56%
    09:00 +5°C° 0 mm 1 mps 698 mmHg 55%
    10:00 +6°C° 0 mm 1 mps 698 mmHg 54%
    11:00 +7°C° 0 mm 1 mps 698 mmHg 52%
    12:00 +7°C° 0.1 mm 1 mps 698 mmHg 52%
    13:00 +8°C° 0.1 mm 1 mps 698 mmHg 51%
    14:00 +8°C° 0.1 mm 1 mps 698 mmHg 51%
    15:00 +7°C° 0.1 mm 1 mps 699 mmHg 53%
    16:00 +7°C° 0.1 mm 1 mps 699 mmHg 55%
    17:00 +6°C° 0.1 mm 1 mps 699 mmHg 57%
    18:00 +6°C° 0.1 mm 1 mps 699 mmHg 58%
    19:00 +5°C° 0.1 mm 1 mps 700 mmHg 59%
    20:00 +5°C° 0.1 mm 1 mps 700 mmHg 60%
    21:00 +5°C° 0.1 mm 1 mps 700 mmHg 61%
    22:00 +5°C° 0.1 mm 1 mps 700 mmHg 62%
    23:00 +5°C° 0.1 mm 1 mps 700 mmHg 63%

    23 December, Sunday

    Time Temperature Precipitation Wind Pressure Humidity
    00:00 +5°C° 0.1 mm 1 mps 700 mmHg 63%
    01:00 +5°C° 0.1 mm 1 mps 700 mmHg 63%
    02:00 +4°C° 0.1 mm 1 mps 700 mmHg 63%
    03:00 +4°C° 0.1 mm 1 mps 700 mmHg 63%
    04:00 +3°C° 0.1 mm 0 mps 700 mmHg 63%
    05:00 +3°C° 0.1 mm 0 mps 700 mmHg 63%
    06:00 +3°C° 0.1 mm 0 mps 700 mmHg 64%
    07:00 +3°C° 0.1 mm 1 mps 700 mmHg 64%
    08:00 +3°C° 0.1 mm 1 mps 701 mmHg 64%
    09:00 +4°C° 0 mm 1 mps 701 mmHg 62%
    10:00 +5°C° 0 mm 1 mps 701 mmHg 59%
    11:00 +6°C° 0 mm 1 mps 701 mmHg 56%
    12:00 +7°C° 0 mm 1 mps 701 mmHg 56%
    13:00 +7°C° 0 mm 1 mps 701 mmHg 56%
    14:00 +8°C° 0 mm 1 mps 701 mmHg 55%
    15:00 +7°C° 0 mm 1 mps 701 mmHg 58%
    16:00 +6°C° 0 mm 1 mps 701 mmHg 60%
    17:00 +5°C° 0 mm 1 mps 701 mmHg 63%
    18:00 +5°C° 0 mm 1 mps 701 mmHg 63%
    19:00 +5°C° 0 mm 1 mps 702 mmHg 64%
    20:00 +4°C° 0 mm 1 mps 702 mmHg 64%
    21:00 +4°C° 0 mm 1 mps 702 mmHg 65%
    22:00 +4°C° 0 mm 1 mps 702 mmHg 65%
    23:00 +2°C° 0 mm 0 mps 702 mmHg 66%

    24 December, Monday

    Time Temperature Precipitation Wind Pressure Humidity
    00:00 +2°C° 0 mm 0 mps 702 mmHg 66%
    01:00 +2°C° 0 mm 0 mps 702 mmHg 66%
    02:00 +2°C° 0 mm 0 mps 702 mmHg 67%
    03:00 +2°C° 0 mm 0 mps 702 mmHg 67%
    04:00 +2°C° 0 mm 0 mps 702 mmHg 68%
    05:00 +1°C° 0 mm 0 mps 702 mmHg 68%
    06:00 +2°C° 0 mm 1 mps 702 mmHg 68%
    07:00 +2°C° 0 mm 1 mps 702 mmHg 68%
    08:00 +2°C° 0 mm 1 mps 702 mmHg 69%
    09:00 +3°C° 0 mm 1 mps 702 mmHg 65%
    10:00 +5°C° 0 mm 1 mps 702 mmHg 61%
    11:00 +6°C° 0 mm 1 mps 702 mmHg 57%
    12:00 +6°C° 0 mm 1 mps 702 mmHg 56%
    13:00 +7°C° 0 mm 1 mps 702 mmHg 55%
    14:00 +7°C° 0 mm 1 mps 701 mmHg 54%
    15:00 +6°C° 0 mm 1 mps 701 mmHg 57%
    16:00 +6°C° 0 mm 1 mps 702 mmHg 59%
    17:00 +5°C° 0 mm 1 mps 702 mmHg 62%
    18:00 +4°C° 0 mm 1 mps 702 mmHg 62%
    19:00 +4°C° 0 mm 1 mps 702 mmHg 63%
    20:00 +3°C° 0 mm 1 mps 702 mmHg 63%
    21:00 +3°C° 0 mm 1 mps 702 mmHg 63%
    22:00 +3°C° 0 mm 1 mps 702 mmHg 62%
    23:00 +3°C° 0 mm 1 mps 702 mmHg 62%
    Show more